GFSNW_850_thetae_021.txt.gz
Theta_e
302 301 302 303 303 302 300 299 303 306 307 310 306 308 309 309 311 311 314 315 319 320 320 320 320 321 322 321 321 323 324 327 327 324 324 323 325 326 328 332 333 330 332 333
302 301 303 302 303 302 300 302 303 304 307 312 312 313 314 315 312 314 313 313 316 317 318 319 319 319 320 321 322 325 321 324 327 327 326 323 323 325 326 327 329 337 331 331
302 301 303 303 303 302 300 303 307 310 308 308 311 313 314 315 317 318 313 315 316 316 316 318 319 320 321 321 321 321 322 326 327 328 328 326 325 324 324 325 329 328 330 330
301 301 302 302 302 302 301 304 307 309 313 312 312 311 311 313 314 318 317 319 316 317 318 319 319 321 321 322 322 327 330 333 330 330 328 327 325 324 324 326 327 329 328 331
301 302 302 303 303 302 301 304 306 305 307 308 311 310 311 314 316 316 318 320 322 322 323 324 322 323 323 324 327 326 325 330 328 331 330 327 326 326 325 325 325 327 328 332
301 302 303 302 303 302 302 302 301 303 304 307 309 310 311 312 311 314 315 315 315 318 322 323 322 323 322 325 329 334 332 328 327 328 328 326 326 327 326 326 327 327 330 331
301 300 301 301 302 302 302 302 300 303 304 306 308 310 310 311 311 311 312 311 314 316 317 318 322 320 322 326 328 331 334 331 327 331 326 326 326 327 327 327 327 328 328 332
301 301 302 302 302 302 302 302 301 301 303 304 306 308 310 310 311 311 311 312 313 313 315 324 329 329 328 328 330 331 334 332 335 333 331 328 331 334 327 325 329 330 331 333
302 301 302 300 301 302 302 302 302 301 301 301 302 307 308 310 310 311 312 312 312 319 324 326 330 332 331 334 335 331 331 332 337 333 331 331 332 333 333 334 331 335 335 337
301 301 301 302 302 302 302 302 302 301 302 302 303 304 307 308 310 311 310 312 313 321 328 329 329 330 331 336 335 338 339 341 338 337 333 332 334 333 333 336 336 334 333 335
302 301 301 301 301 302 302 302 302 302 302 301 302 303 303 307 308 309 309 312 317 322 330 332 330 332 334 336 336 336 339 341 342 340 338 335 331 333 338 335 333 333 333 334
302 302 302 301 301 302 302 302 302 302 301 301 301 302 304 304 305 306 309 312 310 316 322 325 327 335 334 338 338 335 338 338 340 337 336 331 328 332 330 330 332 334 338 339
302 301 302 302 302 302 302 302 302 302 302 302 302 301 302 304 303 304 307 308 310 315 312 320 324 332 332 340 339 337 335 333 337 337 334 329 327 326 325 325 326 327 328 330
301 301 302 302 302 301 301 301 301 301 301 302 303 306 305 305 306 308 308 308 314 314 311 317 323 329 324 334 333 337 328 334 334 334 331 328 325 326 326 325 324 323 324 326
301 301 301 300 301 302 302 301 301 301 302 302 301 302 310 309 310 308 309 308 309 310 312 317 323 323 328 327 329 325 322 329 335 336 331 330 327 325 323 322 323 323 322 322
300 301 301 301 302 302 301 301 305 303 301 300 308 306 308 311 310 310 309 309 308 309 313 318 314 317 326 330 329 320 319 322 322 330 329 325 324 321 319 318 318 318 319 319
300 300 301 300 302 302 301 302 302 303 301 303 308 309 310 310 310 310 309 309 310 311 313 317 316 320 323 323 324 319 320 322 322 321 321 320 319 317 317 318 317 317 316 316
300 300 300 300 301 301 300 301 304 303 304 304 308 310 313 310 312 313 311 311 311 311 312 318 321 320 321 322 319 318 319 319 318 318 318 317 318 318 316 316 315 314 315 317
300 301 301 302 303 304 306 307 306 305 304 305 307 312 316 312 310 311 311 312 314 311 322 321 321 319 321 319 317 318 318 319 318 320 319 318 316 316 315 315 315 315 317 317
302 304 304 305 306 307 307 306 304 303 304 303 306 308 312 310 313 314 314 313 314 324 321 320 321 319 317 317 318 318 318 318 318 319 320 321 321 320 318 319 318 319 320 319
304 304 305 305 306 306 306 307 308 308 309 307 308 309 312 310 315 316 314 315 314 321 321 323 322 317 317 318 319 319 320 319 318 319 320 320 319 321 321 320 320 321 321 319
304 304 306 307 307 306 307 309 308 310 313 310 312 313 310 310 310 315 315 316 318 324 321 323 322 319 317 318 319 318 319 320 320 320 320 320 320 321 321 321 321 320 319 320
305 305 305 304 306 310 311 314 314 314 311 310 311 312 312 313 311 315 317 318 321 320 321 320 320 318 318 317 317 317 317 317 318 318 319 320 320 320 320 321 321 320 320 320
305 306 308 309 310 311 312 312 312 311 311 312 311 311 314 313 315 316 318 319 321 321 321 319 318 317 316 315 315 316 316 316 317 317 317 317 318 319 319 319 320 320 320 321
307 306 306 307 306 309 310 311 311 311 310 311 311 312 313 314 316 319 319 320 320 320 320 318 317 314 314 316 316 316 316 315 315 315 315 315 315 315 316 316 318 320 320 319
306 308 309 308 310 311 310 311 311 309 311 312 312 314 315 315 318 319 319 319 320 319 318 316 315 314 315 315 316 316 316 316 315 315 315 315 315 315 314 313 313 315 318 319
309 310 308 308 308 309 309 309 309 310 312 315 315 316 315 315 317 319 318 317 317 316 316 315 315 315 316 315 316 316 316 315 315 315 314 314 314 314 314 314 314 313 313 314

GFSNW_850_thetae_024.txt.gz
Theta_e
302 303 302 302 303 303 304 304 308 308 307 312 312 313 314 311 312 312 315 318 320 321 322 324 325 325 325 325 327 327 329 330 330 327 326 326 328 329 333 337 339 337 337 338
303 303 302 302 303 302 303 305 304 306 307 310 312 313 313 313 314 314 314 314 317 318 320 323 323 324 324 323 325 329 330 331 332 329 325 326 326 328 330 333 335 341 338 338
304 304 303 301 303 302 303 304 307 308 311 310 313 314 316 316 314 316 315 315 316 316 318 321 322 322 322 321 322 323 326 331 332 332 329 326 325 326 328 330 336 334 336 337
303 303 302 302 302 303 303 305 307 310 310 313 315 315 316 316 316 316 318 319 316 316 317 319 320 321 322 324 322 324 325 330 331 330 330 329 328 326 325 326 328 331 332 334
302 302 302 302 303 303 303 305 306 307 306 307 308 308 311 315 315 316 319 320 319 317 318 319 320 320 321 322 324 325 329 333 334 333 331 330 329 329 328 327 326 327 329 331
300 301 301 302 303 302 303 304 304 304 305 305 306 308 310 311 314 314 315 318 319 322 322 322 324 324 324 323 325 327 328 330 334 335 333 333 333 331 330 330 328 327 328 329
302 301 301 301 302 302 302 303 303 303 307 307 306 307 309 309 310 311 312 313 315 318 317 317 320 324 325 326 327 328 332 335 333 335 334 335 333 332 332 331 330 329 328 328
303 303 302 301 302 303 302 302 302 302 305 305 305 305 306 306 307 310 311 310 311 313 316 321 326 328 329 328 327 327 329 336 335 337 337 334 332 331 332 332 332 331 329 329
302 303 302 301 302 301 302 302 302 302 303 305 305 305 306 309 310 310 310 311 313 314 318 324 328 328 328 327 327 328 330 333 339 339 337 337 340 338 336 337 336 331 330 330
302 302 302 301 302 302 302 302 303 302 301 303 304 306 307 307 308 312 312 312 314 319 326 328 329 328 327 327 331 336 337 338 338 337 338 337 338 335 336 337 336 339 331 330
302 302 302 301 302 301 302 302 302 302 302 302 304 304 304 305 306 310 311 311 317 320 327 329 329 331 330 330 332 337 337 337 336 337 339 340 334 336 338 341 340 338 338 338
301 302 302 302 302 302 302 302 302 303 302 303 304 304 304 304 304 305 307 310 313 312 321 325 326 333 335 334 336 337 336 335 335 339 339 335 332 335 334 336 338 342 340 339
301 302 301 302 303 302 302 302 303 302 302 302 304 305 305 304 304 305 307 309 309 314 314 316 322 331 333 337 337 337 339 337 338 338 334 334 331 329 330 331 333 335 340 341
302 302 301 302 302 302 302 302 302 303 302 304 305 304 306 307 307 304 305 308 310 312 313 317 320 328 328 337 337 339 333 336 338 336 333 329 329 330 328 327 329 331 334 338
301 301 301 301 301 302 302 302 302 302 303 305 304 304 309 309 305 309 307 306 307 309 312 318 320 321 326 331 331 327 323 329 338 336 331 331 330 327 327 328 328 328 328 330
301 300 301 302 301 302 302 303 304 302 303 303 306 308 311 312 311 310 309 309 309 309 313 317 318 316 322 333 329 320 322 326 327 334 331 327 325 321 321 322 322 323 323 323
300 300 301 300 300 301 303 304 302 301 302 300 307 311 313 312 312 311 311 310 311 311 313 317 318 321 323 323 324 320 323 326 329 330 327 323 321 319 320 319 319 319 318 317
300 300 300 300 301 301 301 304 303 302 302 302 307 309 315 312 312 312 311 312 311 312 314 317 321 321 321 322 319 320 321 321 320 321 321 319 318 317 319 320 319 319 320 320
301 301 302 303 304 304 305 306 305 304 302 301 304 312 316 313 313 311 311 312 315 314 321 320 320 320 321 321 319 320 321 320 319 318 318 320 319 318 320 321 321 320 320 321
304 305 307 307 307 306 306 306 305 304 304 303 307 311 315 314 314 313 313 314 317 321 321 318 318 320 318 318 319 320 319 320 319 317 317 316 316 321 322 321 322 322 322 322
306 306 307 307 306 307 308 309 310 309 307 304 308 313 315 313 317 318 315 317 318 321 322 322 318 318 320 315 317 319 321 321 321 321 320 321 322 322 322 323 323 323 324 325
304 305 305 306 309 310 310 312 311 313 314 312 314 314 314 314 314 318 318 319 320 321 321 322 321 318 318 319 318 320 321 322 322 322 322 323 323 323 324 324 324 323 323 324
306 307 308 309 311 314 314 314 314 315 314 313 314 317 316 316 316 319 320 320 321 322 320 320 320 318 318 318 319 320 320 320 321 321 322 322 322 323 324 324 324 324 324 325
307 307 308 308 311 312 313 314 314 313 313 313 314 317 317 316 318 319 320 322 322 321 319 321 320 317 316 318 319 320 320 320 319 319 318 319 320 321 322 324 324 324 324 324
307 305 307 311 310 311 313 314 314 314 314 314 315 315 316 318 318 319 321 321 321 320 320 319 317 317 319 319 319 319 319 319 318 318 318 318 318 317 318 319 321 323 323 323
310 310 312 311 313 313 313 313 314 314 314 316 316 317 317 320 319 320 320 320 321 320 318 317 317 319 320 320 320 319 320 319 319 318 318 317 318 318 318 318 318 318 319 320
311 312 311 311 312 313 313 313 313 313 316 318 318 319 319 318 318 319 316 319 319 318 318 318 319 320 320 320 319 319 319 319 319 319 318 319 319 318 317 317 319 318 318 318

GFSNW_850_thetae_030.txt.gz
Theta_e
303 304 304 304 304 304 305 307 310 311 313 314 314 315 316 316 318 318 320 321 320 320 321 326 329 330 330 330 331 330 329 329 333 331 332 331 329 330 329 331 340 336 338 341
303 302 302 303 304 303 305 307 308 308 310 313 313 314 314 315 317 318 319 320 321 321 320 323 324 328 330 330 330 331 332 330 333 332 331 332 331 329 328 328 329 338 338 338
302 301 301 301 303 303 304 306 310 309 310 311 312 314 316 316 315 316 318 320 320 321 321 322 323 324 327 328 330 333 332 330 333 332 333 332 334 331 330 329 330 332 336 338
303 302 302 301 302 302 303 305 308 309 311 312 313 313 314 314 316 316 317 319 320 319 322 319 320 321 323 326 333 328 329 332 331 331 329 331 332 332 330 331 332 333 333 339
302 303 303 302 302 302 304 304 306 307 308 308 309 309 311 311 312 312 313 317 318 319 321 323 321 322 325 326 328 328 330 333 330 331 330 330 332 332 332 332 331 331 332 333
301 303 303 303 303 303 304 305 304 306 307 308 309 309 310 311 311 312 312 314 314 315 315 315 316 317 319 323 328 332 331 330 335 334 332 331 332 334 333 331 332 331 332 334
301 302 303 303 303 304 304 304 305 305 306 308 309 308 308 310 310 311 312 311 311 311 311 313 318 320 322 323 325 325 334 334 332 334 335 336 332 332 332 333 331 330 331 332
301 302 303 303 303 304 304 304 304 303 306 306 307 308 308 309 309 310 310 310 310 309 311 317 321 323 324 324 325 325 329 333 331 335 333 332 332 333 333 333 336 333 333 334
301 302 302 303 302 302 303 303 304 303 303 305 305 308 307 307 310 311 311 311 312 311 312 316 322 326 323 325 325 326 327 334 334 334 333 334 335 332 333 333 337 337 335 336
302 302 302 303 303 303 303 304 303 304 301 304 305 307 307 307 308 310 310 312 314 313 314 317 318 322 324 324 328 331 328 331 331 332 333 332 332 333 336 340 343 344 341 340
302 302 302 302 302 302 302 304 304 304 302 303 304 305 306 306 307 308 310 310 314 315 317 319 319 322 324 324 325 329 330 331 330 333 336 335 335 338 338 346 345 345 344 342
302 302 302 302 302 302 302 303 304 303 305 304 304 305 306 307 307 307 308 310 310 313 317 320 321 323 327 329 328 326 329 328 331 334 335 342 336 343 342 341 341 343 342 341
301 302 302 302 302 302 302 303 303 303 303 304 305 306 307 307 308 306 308 308 309 310 313 314 320 324 325 331 333 334 332 330 334 333 333 340 338 336 339 340 341 342 342 341
301 301 301 301 302 302 302 303 303 303 304 305 305 307 307 308 309 309 307 306 307 313 312 313 319 322 322 327 327 328 330 329 333 337 344 339 338 337 338 339 342 343 346 347
301 300 301 301 303 302 302 304 303 303 303 306 305 305 308 308 310 309 309 308 308 312 313 313 319 320 321 325 325 329 326 327 332 342 330 332 338 336 338 338 339 340 342 344
301 300 300 300 301 301 303 304 305 304 304 304 307 307 308 311 311 310 309 308 308 309 312 313 315 318 319 325 327 323 322 322 327 328 329 328 333 330 331 330 332 334 335 335
303 302 301 300 300 301 303 305 305 304 303 303 305 308 311 313 314 310 311 310 310 311 314 314 316 319 320 325 326 321 321 325 328 323 326 326 324 325 325 324 325 325 326 327
305 303 303 304 303 303 304 305 306 305 303 302 305 308 309 314 315 313 313 313 312 313 314 316 318 319 321 323 321 322 322 323 328 328 324 322 322 323 323 324 323 324 324 324
306 306 307 306 306 306 307 306 306 304 303 304 303 308 311 313 314 315 314 315 317 316 317 318 318 320 322 321 322 319 319 320 321 322 322 323 323 324 324 322 321 324 325 323
308 309 310 310 310 310 308 306 304 302 301 300 301 302 310 313 315 316 315 316 319 318 317 315 315 318 317 320 318 317 317 318 320 322 323 324 322 321 323 322 324 322 322 327
310 310 311 310 309 308 309 311 308 306 306 304 305 310 316 313 318 318 317 319 319 317 319 317 314 315 316 318 318 317 317 317 317 317 318 321 323 324 322 325 325 323 320 321
307 308 308 310 312 312 312 311 313 314 316 315 316 316 317 314 314 317 318 318 318 320 319 317 316 314 317 319 319 318 318 319 320 320 320 321 319 318 317 321 323 322 325 327
311 312 313 312 313 317 311 313 314 316 316 316 317 319 315 315 315 318 320 320 323 320 318 314 314 315 316 319 322 322 321 323 323 324 324 324 326 325 325 325 325 325 326 327
312 313 315 317 317 315 312 314 315 317 317 318 319 320 319 318 321 321 323 322 320 319 318 313 313 315 318 320 321 321 322 323 322 321 321 323 323 324 324 324 324 324 325 325
315 315 317 316 315 316 317 316 316 318 316 317 321 320 319 321 323 325 323 321 318 316 314 314 314 317 320 320 320 320 320 320 319 320 320 320 320 320 320 321 322 323 323 323
315 314 315 315 316 316 317 318 316 318 319 319 319 320 321 322 321 320 320 321 320 320 320 318 319 320 320 321 321 320 319 319 320 319 320 319 320 320 320 320 319 319 320 320
313 313 314 315 315 316 316 316 317 317 319 321 320 321 321 320 319 319 318 318 318 318 319 319 319 319 320 320 321 321 321 320 320 320 319 320 319 319 319 320 320 320 320 320

GFSNW_850_thetae_033.txt.gz
Theta_e
304 303 302 302 302 302 304 305 307 305 307 310 313 313 314 314 315 315 316 317 318 319 319 319 320 320 320 327 329 326 325 325 326 327 328 327 326 323 321 324 327 328 327 329
303 303 304 302 301 302 303 304 305 305 307 309 311 312 313 313 313 315 315 316 317 318 319 319 320 321 322 321 322 329 326 326 325 326 326 327 327 326 324 323 321 324 328 330
301 301 303 304 302 302 302 305 306 306 308 309 310 312 314 314 313 313 314 314 316 318 318 319 320 321 322 322 321 327 333 326 325 326 327 328 330 327 326 324 323 322 324 324
301 301 302 303 303 302 302 304 306 306 308 309 308 310 311 312 311 312 312 313 314 316 320 320 321 321 320 320 322 324 322 326 327 326 328 329 328 329 328 326 325 324 323 324
301 301 302 302 304 303 302 304 305 305 305 306 307 308 309 310 310 311 311 312 314 314 316 316 315 314 315 318 319 318 318 328 330 329 328 327 328 328 328 328 327 326 326 327
302 301 301 302 304 304 302 303 305 305 305 306 306 306 308 309 309 310 310 311 312 313 313 312 312 312 313 314 316 319 319 322 329 328 329 330 329 327 327 329 329 328 327 326
303 302 302 302 303 303 303 302 304 304 305 305 306 306 306 308 309 310 309 310 310 311 311 310 312 314 317 318 320 320 321 321 326 328 330 332 330 328 328 329 331 329 328 327
301 302 302 303 303 303 303 303 304 304 305 304 305 305 306 307 308 308 308 310 311 311 311 314 314 318 319 320 321 321 322 322 327 329 329 329 331 330 332 329 329 331 332 329
302 302 302 302 303 303 303 303 304 304 303 304 304 306 306 306 308 309 309 309 310 313 311 316 316 320 321 324 323 321 322 322 327 327 328 329 330 331 330 330 332 340 336 332
301 302 302 302 302 303 303 303 303 304 303 303 303 305 306 306 307 308 307 310 309 310 315 316 316 316 316 321 326 324 323 325 328 329 327 328 331 329 329 332 334 344 342 342
302 302 302 302 302 302 302 302 303 304 304 303 304 304 305 306 306 307 308 309 309 311 316 315 317 317 318 322 324 326 329 329 329 328 332 333 339 333 342 345 344 344 343 341
301 301 301 302 302 302 302 302 304 304 305 304 305 306 305 305 307 307 307 308 308 310 315 315 314 320 321 324 329 324 328 330 333 333 332 339 339 340 340 341 344 342 342 340
301 301 301 301 301 302 302 302 303 303 303 303 304 305 306 306 307 306 306 306 307 310 308 313 312 319 322 325 329 328 328 326 332 333 332 332 333 333 337 339 342 347 350 349
302 301 300 301 301 302 303 302 303 304 304 304 305 305 306 306 307 308 308 308 307 307 307 313 315 316 319 321 322 325 328 327 327 331 330 333 336 332 334 337 346 348 349 350
303 303 302 300 300 300 301 301 304 304 304 305 304 304 307 309 310 307 309 309 308 308 307 313 313 316 319 321 323 324 325 326 328 331 328 331 330 326 332 344 343 346 347 347
303 303 304 302 300 300 301 304 305 305 305 304 305 305 306 310 309 311 311 310 309 308 311 313 311 312 319 323 325 323 321 322 324 328 327 325 325 326 327 331 337 337 340 342
305 305 305 303 303 302 302 304 305 304 303 303 304 305 309 311 313 309 311 310 309 309 313 313 314 316 317 322 325 322 323 322 325 326 325 325 324 324 325 325 325 326 326 328
306 305 306 306 306 304 304 305 306 305 303 303 304 305 309 312 313 313 312 311 311 313 314 315 317 316 318 323 321 322 321 321 326 325 324 324 325 324 324 326 326 324 325 325
308 308 308 308 307 306 307 307 306 305 304 304 304 306 312 311 314 314 313 314 315 315 316 317 315 319 322 319 320 320 320 321 324 323 323 323 324 323 324 325 325 326 327 325
310 310 310 310 310 310 309 306 303 301 301 300 302 303 307 312 313 314 315 315 317 319 317 313 313 316 318 319 318 318 321 322 323 323 323 324 324 324 323 322 323 322 328 328
310 311 311 310 309 310 309 309 306 302 303 301 302 304 307 313 316 318 315 318 314 313 317 315 314 316 318 318 317 317 318 320 322 323 323 323 324 325 326 325 323 323 323 325
309 309 310 311 312 310 312 313 312 312 313 311 311 312 312 313 313 316 317 316 317 320 318 315 313 314 317 316 319 317 317 318 318 318 320 320 318 319 321 324 325 326 324 316
313 313 313 314 312 309 312 314 315 317 317 316 316 317 315 316 314 315 316 318 322 318 314 311 312 314 314 318 318 319 320 321 322 323 324 324 323 323 325 325 325 326 327 327
315 315 313 316 317 310 311 315 317 316 317 318 318 319 318 317 319 320 321 320 318 317 316 315 314 314 317 321 322 321 322 322 322 322 323 323 323 323 324 324 324 324 325 325
316 315 317 317 316 317 318 318 318 318 319 320 321 320 321 322 322 321 320 318 315 315 315 315 318 320 319 320 320 320 320 321 321 320 320 321 321 319 318 319 320 322 324 324
315 315 317 316 317 318 319 319 318 319 319 320 320 321 322 320 319 319 319 318 317 319 319 318 318 320 320 320 320 320 320 321 319 320 320 320 320 320 320 319 318 318 319 320
314 316 317 317 317 318 318 319 318 319 318 319 319 320 319 317 318 318 317 315 317 318 318 318 318 318 320 320 319 318 318 319 319 318 317 317 320 319 319 320 320 319 319 320